User: anonymous   Login
Location: Boda
(47.1872°N, 9.5454°E)
Time: 23:36:14
(UTC+00:00)
Language:

Cosmos 1470 - Orbit

View from above orbital plane
View from above orbital plane
View from above satellite
View from above satellite

Ground track
Ground track

The orbit data is extracted from the following two-line orbital elements,

1 14147U 83061A   21204.48986312  .00000311  00000-0  16368-4 0  9998
2 14147  82.4823   7.3894 0016193 144.9750 215.2549 15.11728537830668
Epoch (UTC): 23 July 2021 11:45:24
Eccentricity: 0.0016193
inclination: 82.4823°
perigee height: 520 km
apogee height: 542 km
right ascension of ascending node: 7.3894°
argument of perigee: 144.9750°
revolutions per day: 15.11728537
mean anomaly at epoch: 215.2549°
orbit number at epoch: 83066

The dashed part of the orbit path shows where the satellite is in the earth's shadow,  

DLR